Regional Weather Roundup
Issued by NWS

Home | Current Version | Previous Version | Text Only | Print | Product List | Glossary Off
Versions: 1 2 3 4 5 6 7 8 9 10 11 12 13 14 15 16 17 18 19 20 21 22 23 24 25 26 27 28 29 30 31 32 33 34 35 36 37 38 39 40 41 42 43 44 45 46 47 48 49 50

000
ASUS44 KMEG 161910
RWRTN
TENNESSEE HOURLY STATE WEATHER ROUNDUP
NATIONAL WEATHER SERVICE MEMPHIS TN
100 PM CST MON JAN 16 2017

TNZ002-004-019-021-049-052-054-088>092-162000-
WEST TENNESSEE

CITY           SKY/WX    TMP DP  RH WIND       PRES   REMARKS
MEMPHIS INTL   CLOUDY    67  61  81 S14G22    30.04F
NWS MEMPHIS      N/A     66 N/A N/A MISG        N/A
JACKSON        CLOUDY    68  59  73 S13G20    30.07F
DYERSBURG      MOSUNNY   63  57  82 S7        30.04F
UNION CITY     MOSUNNY   63  63 100 CALM      30.04F
PARIS          MOSUNNY   64  54  68 S10       30.08F
HUNTINGDON     SUNNY     68  55  64 S12G17    30.07F
$$

TNZ008-025-027-028-033-062-065-066-162000-
NORTH MIDDLE TENNESSEE

CITY           SKY/WX    TMP DP  RH WIND       PRES   REMARKS
NASHVILLE      CLOUDY    72  52  49 S16G26    30.14F
PORTLAND       MOSUNNY   66  54  63 S12       30.14F
CLARKSVILLE    MOSUNNY   64  55  72 SE8       30.11F
SMYRNA         PTSUNNY   72  52  49 S10G22    30.15F
GALLATIN       MOSUNNY   68  55  64 SE5       30.17F
CROSSVILLE     CLOUDY    59  50  72 S8        30.23F
$$

TNZ061-075-076-078-094-096-097-162000-
SOUTH MIDDLE TENNESSEE

CITY           SKY/WX    TMP DP  RH WIND       PRES   REMARKS
FAYETTEVILLE   SUNNY     68  52  56 S15       30.17F
TULLAHOMA      MOSUNNY   70  48  46 S14       30.18F
WINCHESTER     MOSUNNY   70  52  52 S15       30.18F
MCMINNVILLE    CLOUDY    70  52  52 S7        30.18F
COLUMBIA       SUNNY     70  55  60 S12       30.13F
SHELBYVILLE    SUNNY     72  54  53 S16       30.17F
$$

TNZ017-018-042-046-047-162000-
NORTHEAST TENNESSEE

CITY           SKY/WX    TMP DP  RH WIND       PRES   REMARKS
TRI CITIES     PTSUNNY   67  45  45 SW14      30.26F
ELIZABETHTON   PTSUNNY   66  45  45 W10       30.25F
$$

TNZ012-013-036-069-073-074-162000-
CENTRAL EAST TENNESSEE

CITY           SKY/WX    TMP DP  RH WIND       PRES   REMARKS
KNOXVILLE      CLOUDY    61  53  75 CALM      30.23F
OAK RIDGE      CLOUDY    60  53  77 CALM      30.25F
GATLINBURG     CLOUDY    57  55  94 CALM      30.24F
MORRISTOWN     CLOUDY    61  57  88 N3        30.24F
JACKSBORO      CLOUDY    59  55  88 CALM      30.27F
$$

TNZ083-085-099-162000-
SOUTHEAST TENNESSEE

CITY           SKY/WX    TMP DP  RH WIND       PRES   REMARKS
CHATTANOOGA    PTSUNNY   62  51  67 CALM      30.24F
$$

SKY/WX REPORTED AS FAIR MEANS FEW OR NO CLOUDS BELOW
12 THOUSAND FEET.





USA.gov is the U.S. government's official web portal to all federal, state and local government web resources and services.